Regional Weather Roundup
Issued by NWS New Orleans/Baton Rouge, LA

Home | Current Version | Previous Version | Graphics & Text | Print | Product List | Glossary On
Versions: 1 2 3 4 5 6 7 8 9 10 11 12 13 14 15 16 17 18 19 20 21 22 23 24 25 26 27 28 29 30 31 32 33 34 35 36 37 38 39 40 41 42 43 44 45 46 47 48 49 50
624
ASUS44 KLIX 251401
RWRLIX
NEW ORLEANS REGIONAL WEATHER ROUNDUP
NATIONAL WEATHER SERVICE NEW ORLEANS LA
800 AM CST SUN JAN 25 2015

NOTE: "FAIR" INDICATES FEW OR NO CLOUDS BELOW 12,000 FEET WITH NO
      SIGNIFICANT WEATHER AND/OR OBSTRUCTIONS TO VISIBILITY.
      SKY/WX - SKY CONDITION AND SIGNIFICANT WEATHER.
      TMP - AIR TEMPERATURE.     DP    - DEWPOINT TEMPERATURE.
      RH  - RELATIVE HUMIDITY.   PRES  - PRESSURE.
      HI  - HEAT INDEX.          WCI   - WIND CHILL INDEX.

*  THESE STATIONS ARE NOT NWS OR FAA STATIONS AND ARE NOT UNDER
   NWS QUALITY CONTROL.

LAZ038-040-048-061>063-065>067-069-251500-
SOUTHEAST LOUISIANA

CITY           SKY/WX    TMP DP  RH WIND       PRES   REMARKS
N.O. AUDUBON     N/A     48  47  96 MISG        N/A
N.O. INTL ARPT MOSUNNY   47  43  86 S9        30.04F
N.O. LAKEFRONT SUNNY     49  44  83 SW12      30.05F
N.O. DOWNTOWN*   N/A     46  41  81 S6        30.05S
SLIDELL        SUNNY     44  42  93 CALM      30.03F FOG
BATON ROUGE    SUNNY     46  43  89 SW8       30.03R
BOOTHVILLE     SUNNY     52  49  89 W5        30.08S
BELLE CHASSE   SUNNY     44  41  89 SW5       30.05S FOG
BOGALUSA*        N/A     34  32  92 CALM      30.03F
GALLIANO*      NOT AVBL
NEW ROADS*     NOT AVBL
GONZALES*      NOT AVBL
HAMMOND*       NOT AVBL
HOUMA*         NOT AVBL
PORT FOURCHON* SUNNY     54  48  82 SW3       30.11S

$$

MSZ070-080>082-251500-
SOUTHERN MISSISSIPPI

CITY           SKY/WX    TMP DP  RH WIND       PRES   REMARKS
MCCOMB         MOSUNNY   34  33  96 S3        29.99S FOG
GULFPORT       SUNNY     45  43  93 SW5       30.03F
BILOXI         SUNNY     49  47  92 SW10      30.03F
PASCAGOULA     SUNNY     41  39  93 S5        30.04F FOG
STENNIS ARPT*  SUNNY     39  37  93 CALM      30.04F FOG

$$

COASTAL OBSERVATIONS
LAKE AND NEARSHORE STATIONS

STATION/POSITION TIME  TEMP    WIND        PRES    WAVE
                       AIR SEA DIR/SP/G            HT/PER
                 (UTC) (F)     (DEG/KT/KT) (MB)    (FT/S)
PASCAGOULA       1321   47     270/  7/  9 1017.1
WAVELAND YACHT   1321   45     230/  5/  6 1016.5
GRAND ISLE       1321   52 55  260/  5/  6 1018.6
SOUTHWEST PASS   1321   53 45  300/ 10/ 12 1018.7
NEW CANAL        1321   46 51  210/  7/ 10 1017.7
SHELL BEACH      1321   45 52  210/  7/  8 1017.8

OFFSHORE STATIONS

STATION/POSITION TIME  TEMP    WIND        PRES    WAVE
                       AIR SEA DIR/SP/G            HT/PER
                 (UTC) (F)     (DEG/KT/KT) (MB)    (FT/S)
64 S DAUPHIN ISL 1350   58 70  270/ 16/ 19 1018.7    4/ 7

$$




USA.gov is the U.S. government's official web portal to all federal, state and local government web resources and services.